Time,TemperatureF,DewpointF,PressureIn,WindDirection,WindDirectionDegrees,WindSpeedMPH,WindSpeedGustMPH,Humidity,HourlyPrecipIn,Conditions,Clouds,dailyrainin,SoftwareType,DateUTC
2013-10-12 00:01:00,53.7,50.0,30.26,East,90,2.1,5.0,89,0.00,,,0.00,Rainwise IP-100,2013-10-12 04:01:00,
2013-10-12 00:02:00,53.6,50.0,30.26,ENE,67,4.0,5.0,89,0.00,,,0.00,Rainwise IP-100,2013-10-12 04:02:00,
2013-10-12 00:07:00,53.5,50.0,30.26,ESE,112,0.0,4.0,89,0.00,,,0.00,Rainwise IP-100,2013-10-12 04:07:00,
2013-10-12 00:12:00,53.2,50.0,30.26,ESE,112,1.6,3.0,90,0.00,,,0.00,Rainwise IP-100,2013-10-12 04:12:00,
2013-10-12 00:17:00,52.9,50.0,30.27,East,90,1.4,3.0,91,0.00,,,0.00,Rainwise IP-100,2013-10-12 04:17:00,
2013-10-12 00:22:00,52.7,50.0,30.27,ENE,67,3.7,3.7,91,0.00,,,0.00,Rainwise IP-100,2013-10-12 04:22:00,
2013-10-12 00:27:00,52.7,50.0,30.27,ESE,112,3.5,7.0,92,0.00,,,0.00,Rainwise IP-100,2013-10-12 04:27:00,
2013-10-12 00:32:00,52.8,50.0,30.27,East,90,2.1,7.0,93,0.00,,,0.00,Rainwise IP-100,2013-10-12 04:32:00,
2013-10-12 00:37:00,52.9,50.0,30.27,ENE,67,1.9,11.0,93,0.00,,,0.00,Rainwise IP-100,2013-10-12 04:37:00,
2013-10-12 00:42:00,53.0,51.0,30.27,ESE,112,2.1,7.0,94,0.00,,,0.00,Rainwise IP-100,2013-10-12 04:42:00,
2013-10-12 00:47:00,52.9,51.0,30.27,ESE,112,3.0,7.0,94,0.00,,,0.00,Rainwise IP-100,2013-10-12 04:47:00,
2013-10-12 00:52:00,52.8,51.0,30.27,East,90,2.8,5.0,94,0.00,,,0.00,Rainwise IP-100,2013-10-12 04:52:00,
2013-10-12 00:57:00,52.7,51.0,30.27,ESE,112,1.4,4.0,94,0.00,,,0.00,Rainwise IP-100,2013-10-12 04:57:00,
2013-10-12 01:02:00,52.7,51.0,30.27,ESE,112,0.0,5.0,94,0.00,,,0.00,Rainwise IP-100,2013-10-12 05:02:00,
2013-10-12 01:07:00,52.7,51.0,30.27,ESE,112,1.6,4.0,94,0.00,,,0.00,Rainwise IP-100,2013-10-12 05:07:00,
2013-10-12 01:12:00,52.6,51.0,30.27,ENE,67,1.4,5.0,95,0.00,,,0.00,Rainwise IP-100,2013-10-12 05:12:00,
2013-10-12 01:17:00,52.5,51.0,30.27,ESE,112,3.0,5.0,95,0.00,,,0.00,Rainwise IP-100,2013-10-12 05:17:00,
2013-10-12 01:22:00,52.6,51.0,30.27,ENE,67,1.6,6.0,95,0.00,,,0.00,Rainwise IP-100,2013-10-12 05:22:00,
2013-10-12 01:27:00,52.6,51.0,30.27,ESE,112,2.1,4.0,95,0.00,,,0.00,Rainwise IP-100,2013-10-12 05:27:00,
2013-10-12 01:32:00,52.5,51.0,30.27,ESE,112,2.1,4.0,95,0.00,,,0.00,Rainwise IP-100,2013-10-12 05:32:00,
2013-10-12 01:37:00,52.3,50.0,30.28,East,90,2.3,6.0,95,0.00,,,0.00,Rainwise IP-100,2013-10-12 05:37:00,
2013-10-12 01:42:00,52.2,50.0,30.28,ESE,112,2.6,5.0,95,0.00,,,0.00,Rainwise IP-100,2013-10-12 05:42:00,
2013-10-12 01:47:00,52.1,50.0,30.28,NNE,22,5.8,5.8,95,0.00,,,0.00,Rainwise IP-100,2013-10-12 05:47:00,
2013-10-12 01:52:00,52.1,50.0,30.28,ESE,112,1.9,5.0,95,0.00,,,0.00,Rainwise IP-100,2013-10-12 05:52:00,
2013-10-12 01:57:00,52.0,50.0,30.28,ESE,112,3.0,4.0,96,0.00,,,0.00,Rainwise IP-100,2013-10-12 05:57:00,
2013-10-12 02:02:00,51.9,50.0,30.28,SE,135,2.1,7.0,96,0.00,,,0.00,Rainwise IP-100,2013-10-12 06:02:00,
2013-10-12 02:07:00,51.8,50.0,30.28,SSE,157,2.3,6.0,96,0.00,,,0.00,Rainwise IP-100,2013-10-12 06:07:00,
2013-10-12 02:12:00,51.8,50.0,30.29,ESE,112,1.9,6.0,96,0.00,,,0.00,Rainwise IP-100,2013-10-12 06:12:00,
2013-10-12 02:17:00,51.8,50.0,30.29,ESE,112,2.3,6.0,96,0.00,,,0.00,Rainwise IP-100,2013-10-12 06:17:00,
2013-10-12 02:22:00,51.6,50.0,30.28,East,90,2.6,6.0,96,0.00,,,0.00,Rainwise IP-100,2013-10-12 06:22:00,
2013-10-12 02:27:00,51.6,51.0,30.28,ENE,67,3.3,6.0,97,0.00,,,0.00,Rainwise IP-100,2013-10-12 06:27:00,
2013-10-12 02:32:00,51.5,51.0,30.29,East,90,1.6,7.0,97,0.00,,,0.00,Rainwise IP-100,2013-10-12 06:32:00,
2013-10-12 02:37:00,51.3,50.0,30.29,ESE,112,2.1,8.0,97,0.00,,,0.00,Rainwise IP-100,2013-10-12 06:37:00,
2013-10-12 02:42:00,51.2,50.0,30.29,ESE,112,1.9,6.0,97,0.00,,,0.00,Rainwise IP-100,2013-10-12 06:42:00,
2013-10-12 02:47:00,51.2,50.0,30.29,ENE,67,1.9,9.0,97,0.00,,,0.00,Rainwise IP-100,2013-10-12 06:47:00,
2013-10-12 02:52:00,51.1,50.0,30.29,East,90,3.3,7.0,97,0.00,,,0.00,Rainwise IP-100,2013-10-12 06:52:00,
2013-10-12 02:57:00,51.1,50.0,30.29,ENE,67,1.4,7.0,97,0.00,,,0.00,Rainwise IP-100,2013-10-12 06:57:00,
2013-10-12 03:02:00,51.1,50.0,30.29,NNE,22,3.3,7.0,97,0.00,,,0.00,Rainwise IP-100,2013-10-12 07:02:00,
2013-10-12 03:07:00,51.0,50.0,30.29,NW,315,2.8,6.0,97,0.00,,,0.00,Rainwise IP-100,2013-10-12 07:07:00,
2013-10-12 03:12:00,51.0,50.0,30.29,East,90,1.9,6.0,97,0.00,,,0.00,Rainwise IP-100,2013-10-12 07:12:00,
2013-10-12 03:17:00,50.9,50.0,30.30,ESE,112,1.9,7.0,98,0.00,,,0.00,Rainwise IP-100,2013-10-12 07:17:00,
2013-10-12 03:22:00,50.7,50.0,30.30,ESE,112,3.7,8.0,98,0.00,,,0.00,Rainwise IP-100,2013-10-12 07:22:00,
2013-10-12 03:27:00,50.7,50.0,30.30,SSW,202,3.3,7.0,98,0.00,,,0.00,Rainwise IP-100,2013-10-12 07:27:00,
2013-10-12 03:32:00,50.7,50.0,30.31,ESE,112,4.4,14.0,98,0.00,,,0.00,Rainwise IP-100,2013-10-12 07:32:00,
2013-10-12 03:37:00,50.7,50.0,30.30,South,180,1.2,13.0,98,0.00,,,0.00,Rainwise IP-100,2013-10-12 07:37:00,
2013-10-12 03:42:00,50.7,50.0,30.31,ENE,67,4.4,10.0,98,0.00,,,0.00,Rainwise IP-100,2013-10-12 07:42:00,
2013-10-12 03:47:00,50.8,50.0,30.31,SE,135,4.2,6.0,98,0.00,,,0.00,Rainwise IP-100,2013-10-12 07:47:00,
2013-10-12 03:52:00,50.8,50.0,30.31,East,90,6.3,7.0,98,0.00,,,0.00,Rainwise IP-100,2013-10-12 07:52:00,
2013-10-12 03:57:00,50.8,50.0,30.32,SE,135,1.9,7.0,98,0.00,,,0.00,Rainwise IP-100,2013-10-12 07:57:00,
2013-10-12 04:02:00,50.8,50.0,30.32,SE,135,3.7,8.0,98,0.00,,,0.00,Rainwise IP-100,2013-10-12 08:02:00,
2013-10-12 04:07:00,50.8,50.0,30.32,ESE,112,1.2,6.0,98,0.00,,,0.00,Rainwise IP-100,2013-10-12 08:07:00,
2013-10-12 04:12:00,50.7,50.0,30.32,ENE,67,4.4,7.0,98,0.00,,,0.00,Rainwise IP-100,2013-10-12 08:12:00,
2013-10-12 04:17:00,50.7,50.0,30.32,ESE,112,2.8,7.0,98,0.00,,,0.00,Rainwise IP-100,2013-10-12 08:17:00,
2013-10-12 04:22:00,50.6,50.0,30.32,SE,135,1.6,7.0,98,0.00,,,0.00,Rainwise IP-100,2013-10-12 08:22:00,
2013-10-12 04:27:00,50.5,50.0,30.32,East,90,3.5,6.0,98,0.00,,,0.00,Rainwise IP-100,2013-10-12 08:27:00,
2013-10-12 04:32:00,50.4,50.0,30.32,ESE,112,2.1,5.0,98,0.00,,,0.00,Rainwise IP-100,2013-10-12 08:32:00,
2013-10-12 04:37:00,50.3,49.0,30.32,ESE,112,1.2,8.0,98,0.00,,,0.00,Rainwise IP-100,2013-10-12 08:37:00,
2013-10-12 04:42:00,50.3,49.0,30.33,East,90,0.0,10.0,98,0.00,,,0.00,Rainwise IP-100,2013-10-12 08:42:00,
2013-10-12 04:47:00,50.2,49.0,30.33,East,90,1.9,6.0,98,0.00,,,0.00,Rainwise IP-100,2013-10-12 08:47:00,
2013-10-12 04:52:00,50.0,49.0,30.33,ESE,112,0.0,4.0,98,0.00,,,0.00,Rainwise IP-100,2013-10-12 08:52:00,
2013-10-12 04:57:00,49.9,49.0,30.33,SE,135,2.3,6.0,98,0.00,,,0.00,Rainwise IP-100,2013-10-12 08:57:00,
2013-10-12 05:02:00,49.9,49.0,30.33,ESE,112,3.3,9.0,98,0.00,,,0.00,Rainwise IP-100,2013-10-12 09:02:00,
2013-10-12 05:07:00,49.8,49.0,30.33,ENE,67,1.9,4.0,98,0.00,,,0.00,Rainwise IP-100,2013-10-12 09:07:00,
2013-10-12 05:12:00,49.7,49.0,30.34,East,90,2.1,6.0,98,0.00,,,0.00,Rainwise IP-100,2013-10-12 09:12:00,
2013-10-12 05:17:00,49.5,49.0,30.34,NE,45,0.0,5.0,98,0.00,,,0.00,Rainwise IP-100,2013-10-12 09:17:00,
2013-10-12 05:22:00,49.3,48.0,30.35,South,180,0.0,8.0,98,0.00,,,0.00,Rainwise IP-100,2013-10-12 09:22:00,
2013-10-12 05:27:00,49.2,48.0,30.35,East,90,1.6,6.0,98,0.00,,,0.00,Rainwise IP-100,2013-10-12 09:27:00,
2013-10-12 05:32:00,49.1,48.0,30.35,East,90,2.6,7.0,98,0.00,,,0.00,Rainwise IP-100,2013-10-12 09:32:00,
2013-10-12 05:37:00,49.1,48.0,30.35,ENE,67,2.6,10.0,98,0.00,,,0.00,Rainwise IP-100,2013-10-12 09:37:00,
2013-10-12 05:42:00,49.2,48.0,30.35,East,90,6.5,6.5,98,0.00,,,0.00,Rainwise IP-100,2013-10-12 09:42:00,
2013-10-12 05:47:00,49.2,48.0,30.35,ESE,112,1.4,8.0,98,0.00,,,0.00,Rainwise IP-100,2013-10-12 09:47:00,
2013-10-12 05:52:00,49.2,48.0,30.35,ESE,112,1.6,9.0,98,0.00,,,0.00,Rainwise IP-100,2013-10-12 09:52:00,
2013-10-12 05:57:00,49.2,48.0,30.36,SSE,157,0.0,7.0,98,0.00,,,0.00,Rainwise IP-100,2013-10-12 09:57:00,
2013-10-12 06:02:00,49.1,48.0,30.36,East,90,2.6,12.0,98,0.00,,,0.00,Rainwise IP-100,2013-10-12 10:02:00,
2013-10-12 06:07:00,49.1,48.0,30.35,East,90,2.3,7.0,98,0.00,,,0.00,Rainwise IP-100,2013-10-12 10:07:00,
2013-10-12 06:12:00,49.1,48.0,30.36,East,90,2.3,7.0,98,0.00,,,0.00,Rainwise IP-100,2013-10-12 10:12:00,
2013-10-12 06:17:00,49.2,48.0,30.36,ESE,112,2.1,5.0,98,0.00,,,0.00,Rainwise IP-100,2013-10-12 10:17:00,
2013-10-12 06:22:00,49.2,48.0,30.37,East,90,2.1,5.0,98,0.00,,,0.00,Rainwise IP-100,2013-10-12 10:22:00,
2013-10-12 06:27:00,49.1,48.0,30.37,ENE,67,2.6,7.0,98,0.00,,,0.00,Rainwise IP-100,2013-10-12 10:27:00,
2013-10-12 06:32:00,49.1,48.0,30.37,ESE,112,3.0,7.0,98,0.00,,,0.00,Rainwise IP-100,2013-10-12 10:32:00,
2013-10-12 06:37:00,49.0,48.0,30.37,ESE,112,2.6,9.0,98,0.00,,,0.00,Rainwise IP-100,2013-10-12 10:37:00,
2013-10-12 06:42:00,48.9,48.0,30.37,ESE,112,3.3,6.0,98,0.00,,,0.00,Rainwise IP-100,2013-10-12 10:42:00,
2013-10-12 06:47:00,48.9,48.0,30.37,ESE,112,1.2,5.0,98,0.00,,,0.00,Rainwise IP-100,2013-10-12 10:47:00,
2013-10-12 06:52:00,49.0,49.0,30.38,SE,135,3.3,7.0,99,0.00,,,0.00,Rainwise IP-100,2013-10-12 10:52:00,
2013-10-12 06:57:00,49.0,48.0,30.37,SSE,157,3.5,9.0,98,0.00,,,0.00,Rainwise IP-100,2013-10-12 10:57:00,
2013-10-12 07:02:00,49.1,48.0,30.38,ESE,112,2.8,7.0,98,0.00,,,0.00,Rainwise IP-100,2013-10-12 11:02:00,
2013-10-12 07:07:00,49.1,48.0,30.39,ESE,112,1.6,6.0,98,0.00,,,0.00,Rainwise IP-100,2013-10-12 11:07:00,
2013-10-12 07:12:00,49.2,48.0,30.39,NNW,337,2.8,8.0,98,0.00,,,0.00,Rainwise IP-100,2013-10-12 11:12:00,
2013-10-12 07:17:00,49.3,48.0,30.40,SSE,157,1.2,6.0,98,0.00,,,0.00,Rainwise IP-100,2013-10-12 11:17:00,
2013-10-12 07:22:00,49.4,48.0,30.40,ESE,112,2.1,7.0,97,0.00,,,0.00,Rainwise IP-100,2013-10-12 11:22:00,
2013-10-12 07:27:00,49.4,48.0,30.40,ENE,67,7.5,8.0,97,0.00,,,0.00,Rainwise IP-100,2013-10-12 11:27:00,
2013-10-12 07:32:00,49.5,49.0,30.40,East,90,2.6,8.0,97,0.00,,,0.00,Rainwise IP-100,2013-10-12 11:32:00,
2013-10-12 07:37:00,49.6,49.0,30.41,ENE,67,5.4,7.0,96,0.00,,,0.00,Rainwise IP-100,2013-10-12 11:37:00,
2013-10-12 07:42:00,49.7,49.0,30.40,ENE,67,7.7,7.7,96,0.00,,,0.00,Rainwise IP-100,2013-10-12 11:42:00,
2013-10-12 07:47:00,49.7,49.0,30.40,NE,45,3.3,9.0,96,0.00,,,0.00,Rainwise IP-100,2013-10-12 11:47:00,
2013-10-12 07:52:00,49.7,48.0,30.40,East,90,4.7,10.0,95,0.00,,,0.00,Rainwise IP-100,2013-10-12 11:52:00,
2013-10-12 07:57:00,49.7,48.0,30.41,East,90,1.6,8.0,95,0.00,,,0.00,Rainwise IP-100,2013-10-12 11:57:00,
2013-10-12 08:02:00,49.8,48.0,30.40,ESE,112,3.0,12.0,95,0.00,,,0.00,Rainwise IP-100,2013-10-12 12:02:00,
2013-10-12 08:07:00,49.8,48.0,30.41,ESE,112,4.0,7.0,95,0.00,,,0.00,Rainwise IP-100,2013-10-12 12:07:00,
2013-10-12 08:12:00,49.8,48.0,30.41,ESE,112,3.7,6.0,95,0.00,,,0.00,Rainwise IP-100,2013-10-12 12:12:00,
2013-10-12 08:17:00,49.8,48.0,30.41,ESE,112,0.0,8.0,95,0.00,,,0.00,Rainwise IP-100,2013-10-12 12:17:00,
2013-10-12 08:22:00,49.7,48.0,30.41,SE,135,5.1,12.0,95,0.00,,,0.00,Rainwise IP-100,2013-10-12 12:22:00,
2013-10-12 08:27:00,49.7,48.0,30.41,ESE,112,1.9,8.0,95,0.00,,,0.00,Rainwise IP-100,2013-10-12 12:27:00,
2013-10-12 08:32:00,49.8,48.0,30.42,NNE,22,1.2,10.0,95,0.00,,,0.00,Rainwise IP-100,2013-10-12 12:32:00,
2013-10-12 08:37:00,49.9,48.0,30.42,NNW,337,0.0,6.0,95,0.00,,,0.00,Rainwise IP-100,2013-10-12 12:37:00,
2013-10-12 08:42:00,49.8,48.0,30.42,ESE,112,1.9,9.0,94,0.00,,,0.00,Rainwise IP-100,2013-10-12 12:42:00,
2013-10-12 08:47:00,49.7,48.0,30.42,NNE,22,1.4,6.0,94,0.00,,,0.00,Rainwise IP-100,2013-10-12 12:47:00,
2013-10-12 08:52:00,49.6,47.0,30.42,ESE,112,3.0,8.0,93,0.00,,,0.00,Rainwise IP-100,2013-10-12 12:52:00,
2013-10-12 08:57:00,49.4,47.0,30.42,East,90,2.8,7.0,93,0.00,,,0.00,Rainwise IP-100,2013-10-12 12:57:00,
2013-10-12 09:02:00,49.2,47.0,30.42,NE,45,1.9,5.0,93,0.00,,,0.00,Rainwise IP-100,2013-10-12 13:02:00,
2013-10-12 09:07:00,49.3,47.0,30.42,NE,45,3.5,6.0,93,0.00,,,0.00,Rainwise IP-100,2013-10-12 13:07:00,
2013-10-12 09:12:00,49.5,47.0,30.42,East,90,1.6,8.0,93,0.00,,,0.00,Rainwise IP-100,2013-10-12 13:12:00,
2013-10-12 09:17:00,49.5,47.0,30.42,East,90,1.2,8.0,92,0.00,,,0.00,Rainwise IP-100,2013-10-12 13:17:00,
2013-10-12 09:22:00,49.5,47.0,30.42,ENE,67,2.8,6.0,92,0.00,,,0.00,Rainwise IP-100,2013-10-12 13:22:00,
2013-10-12 09:27:00,49.4,47.0,30.42,ENE,67,2.1,9.0,92,0.00,,,0.00,Rainwise IP-100,2013-10-12 13:27:00,
2013-10-12 09:32:00,49.4,47.0,30.42,East,90,1.4,5.0,92,0.00,,,0.00,Rainwise IP-100,2013-10-12 13:32:00,
2013-10-12 09:37:00,49.5,47.0,30.42,ESE,112,1.9,7.0,91,0.00,,,0.00,Rainwise IP-100,2013-10-12 13:37:00,
2013-10-12 09:42:00,49.8,47.0,30.42,North,360,1.9,7.0,91,0.00,,,0.00,Rainwise IP-100,2013-10-12 13:42:00,
2013-10-12 09:47:00,50.0,47.0,30.43,SE,135,0.0,5.0,91,0.00,,,0.00,Rainwise IP-100,2013-10-12 13:47:00,
2013-10-12 09:52:00,50.4,47.0,30.43,East,90,2.1,4.0,90,0.00,,,0.00,Rainwise IP-100,2013-10-12 13:52:00,
2013-10-12 09:57:00,50.4,47.0,30.43,ESE,112,2.6,6.0,89,0.00,,,0.00,Rainwise IP-100,2013-10-12 13:57:00,
2013-10-12 10:02:00,50.2,47.0,30.43,ESE,112,3.7,8.0,88,0.00,,,0.00,Rainwise IP-100,2013-10-12 14:02:00,
2013-10-12 10:07:00,50.3,47.0,30.43,ENE,67,1.2,5.0,88,0.00,,,0.00,Rainwise IP-100,2013-10-12 14:07:00,
2013-10-12 10:12:00,50.5,47.0,30.43,ESE,112,2.3,6.0,87,0.00,,,0.00,Rainwise IP-100,2013-10-12 14:12:00,
2013-10-12 10:17:00,50.9,47.0,30.43,ESE,112,1.9,4.0,87,0.00,,,0.00,Rainwise IP-100,2013-10-12 14:17:00,
2013-10-12 10:22:00,51.1,47.0,30.43,SE,135,1.9,7.0,86,0.00,,,0.00,Rainwise IP-100,2013-10-12 14:22:00,
2013-10-12 10:27:00,50.9,47.0,30.43,SSE,157,2.8,7.0,85,0.00,,,0.00,Rainwise IP-100,2013-10-12 14:27:00,
2013-10-12 10:32:00,50.7,46.0,30.43,East,90,4.2,9.0,85,0.00,,,0.00,Rainwise IP-100,2013-10-12 14:32:00,
2013-10-12 10:37:00,50.6,46.0,30.43,SSW,202,1.4,8.0,85,0.00,,,0.00,Rainwise IP-100,2013-10-12 14:37:00,
2013-10-12 10:42:00,50.8,46.0,30.43,NE,45,1.6,6.0,84,0.00,,,0.00,Rainwise IP-100,2013-10-12 14:42:00,
2013-10-12 10:47:00,51.3,47.0,30.43,East,90,5.1,7.0,84,0.00,,,0.00,Rainwise IP-100,2013-10-12 14:47:00,
2013-10-12 10:52:00,51.6,47.0,30.43,ESE,112,2.3,5.0,83,0.00,,,0.00,Rainwise IP-100,2013-10-12 14:52:00,
2013-10-12 10:57:00,51.5,47.0,30.44,East,90,2.3,6.0,82,0.00,,,0.00,Rainwise IP-100,2013-10-12 14:57:00,
2013-10-12 11:03:00,51.4,46.0,30.44,SE,135,0.0,4.0,82,0.00,,,0.00,Rainwise IP-100,2013-10-12 15:03:00,
2013-10-12 11:08:00,51.5,47.0,30.44,ENE,67,4.4,4.4,82,0.00,,,0.00,Rainwise IP-100,2013-10-12 15:08:00,
2013-10-12 11:13:00,51.3,46.0,30.44,ENE,67,4.9,8.0,82,0.00,,,0.00,Rainwise IP-100,2013-10-12 15:13:00,
2013-10-12 11:18:00,51.2,46.0,30.44,ESE,112,3.5,8.0,82,0.00,,,0.00,Rainwise IP-100,2013-10-12 15:18:00,
2013-10-12 11:23:00,51.4,46.0,30.44,ENE,67,2.1,5.0,81,0.00,,,0.00,Rainwise IP-100,2013-10-12 15:23:00,
2013-10-12 11:28:00,51.7,47.0,30.44,ENE,67,4.0,5.0,81,0.00,,,0.00,Rainwise IP-100,2013-10-12 15:28:00,
2013-10-12 11:33:00,51.9,46.0,30.44,NNW,337,0.0,9.0,80,0.00,,,0.00,Rainwise IP-100,2013-10-12 15:33:00,
2013-10-12 11:38:00,52.0,46.0,30.44,ESE,112,1.9,6.0,79,0.00,,,0.00,Rainwise IP-100,2013-10-12 15:38:00,
2013-10-12 11:43:00,51.9,46.0,30.44,ENE,67,0.0,5.0,79,0.00,,,0.00,Rainwise IP-100,2013-10-12 15:43:00,
2013-10-12 11:48:00,51.9,46.0,30.45,NNE,22,2.3,5.0,79,0.00,,,0.00,Rainwise IP-100,2013-10-12 15:48:00,
2013-10-12 11:53:00,52.2,45.0,30.45,ESE,112,1.6,4.0,78,0.00,,,0.00,Rainwise IP-100,2013-10-12 15:53:00,
2013-10-12 11:58:00,52.9,46.0,30.45,East,90,2.8,3.0,78,0.00,,,0.00,Rainwise IP-100,2013-10-12 15:58:00,
2013-10-12 12:03:00,53.8,47.0,30.45,SE,135,1.9,6.0,77,0.00,,,0.00,Rainwise IP-100,2013-10-12 16:03:00,
2013-10-12 12:08:00,54.3,46.0,30.45,ESE,112,3.0,4.0,74,0.00,,,0.00,Rainwise IP-100,2013-10-12 16:08:00,
2013-10-12 12:13:00,53.8,45.0,30.44,ESE,112,1.9,5.0,74,0.00,,,0.00,Rainwise IP-100,2013-10-12 16:13:00,
2013-10-12 12:18:00,53.3,45.0,30.44,ESE,112,2.3,5.0,75,0.00,,,0.00,Rainwise IP-100,2013-10-12 16:18:00,
2013-10-12 12:23:00,53.6,46.0,30.44,SSE,157,1.6,8.0,75,0.00,,,0.00,Rainwise IP-100,2013-10-12 16:23:00,
2013-10-12 12:28:00,54.6,47.0,30.44,ENE,67,1.4,5.0,74,0.00,,,0.00,Rainwise IP-100,2013-10-12 16:28:00,
2013-10-12 12:33:00,55.9,47.0,30.44,ESE,112,5.6,6.0,72,0.00,,,0.00,Rainwise IP-100,2013-10-12 16:33:00,
2013-10-12 12:38:00,55.7,47.0,30.44,ENE,67,3.7,5.0,71,0.00,,,0.00,Rainwise IP-100,2013-10-12 16:38:00,
2013-10-12 12:43:00,55.1,46.0,30.43,WNW,292,1.4,5.0,71,0.00,,,0.00,Rainwise IP-100,2013-10-12 16:43:00,
2013-10-12 12:48:00,55.2,46.0,30.43,NE,45,4.2,5.0,71,0.00,,,0.00,Rainwise IP-100,2013-10-12 16:48:00,
2013-10-12 12:53:00,55.5,47.0,30.43,NNE,22,2.8,7.0,71,0.00,,,0.00,Rainwise IP-100,2013-10-12 16:53:00,
2013-10-12 12:58:00,55.4,46.0,30.43,ESE,112,4.0,7.0,70,0.00,,,0.00,Rainwise IP-100,2013-10-12 16:58:00,
2013-10-12 13:03:00,55.2,46.0,30.43,SSE,157,1.6,4.0,71,0.00,,,0.00,Rainwise IP-100,2013-10-12 17:03:00,
2013-10-12 13:08:00,56.1,47.0,30.43,ESE,112,3.3,3.3,70,0.00,,,0.00,Rainwise IP-100,2013-10-12 17:08:00,
2013-10-12 13:13:00,57.3,47.0,30.43,ESE,112,2.8,8.0,68,0.00,,,0.00,Rainwise IP-100,2013-10-12 17:13:00,
2013-10-12 13:18:00,57.3,46.0,30.43,NNE,22,3.5,5.0,66,0.00,,,0.00,Rainwise IP-100,2013-10-12 17:18:00,
2013-10-12 13:23:00,56.9,46.0,30.43,East,90,2.1,4.0,66,0.00,,,0.00,Rainwise IP-100,2013-10-12 17:23:00,
2013-10-12 13:28:00,56.6,46.0,30.43,NNE,22,2.6,8.0,67,0.00,,,0.00,Rainwise IP-100,2013-10-12 17:28:00,
2013-10-12 13:33:00,56.4,46.0,30.43,SE,135,1.4,4.0,68,0.00,,,0.00,Rainwise IP-100,2013-10-12 17:33:00,
2013-10-12 13:38:00,56.6,46.0,30.43,SE,135,1.6,5.0,68,0.00,,,0.00,Rainwise IP-100,2013-10-12 17:38:00,
2013-10-12 13:43:00,56.5,46.0,30.43,NE,45,2.1,5.0,68,0.00,,,0.00,Rainwise IP-100,2013-10-12 17:43:00,
2013-10-12 13:48:00,56.2,46.0,30.43,ESE,112,1.2,3.0,68,0.00,,,0.00,Rainwise IP-100,2013-10-12 17:48:00,
2013-10-12 13:53:00,56.0,46.0,30.43,NNW,337,3.5,5.0,69,0.00,,,0.00,Rainwise IP-100,2013-10-12 17:53:00,
2013-10-12 13:58:00,56.0,46.0,30.43,ESE,112,1.6,4.0,69,0.00,,,0.00,Rainwise IP-100,2013-10-12 17:58:00,
2013-10-12 14:03:00,55.9,46.0,30.43,SSE,157,1.6,4.0,69,0.00,,,0.00,Rainwise IP-100,2013-10-12 18:03:00,
2013-10-12 14:08:00,55.6,46.0,30.43,SE,135,0.0,4.0,68,0.00,,,0.00,Rainwise IP-100,2013-10-12 18:08:00,
2013-10-12 14:13:00,55.9,46.0,30.43,NW,315,2.6,3.0,69,0.00,,,0.00,Rainwise IP-100,2013-10-12 18:13:00,
2013-10-12 14:18:00,56.4,46.0,30.43,NNE,22,2.3,4.0,68,0.00,,,0.00,Rainwise IP-100,2013-10-12 18:18:00,
2013-10-12 14:23:00,57.1,46.0,30.43,East,90,0.0,2.0,67,0.00,,,0.00,Rainwise IP-100,2013-10-12 18:23:00,
2013-10-12 14:28:00,58.0,47.0,30.43,NNW,337,0.0,5.0,65,0.00,,,0.00,Rainwise IP-100,2013-10-12 18:28:00,
2013-10-12 14:33:00,58.8,47.0,30.43,NNW,337,3.0,6.0,63,0.00,,,0.00,Rainwise IP-100,2013-10-12 18:33:00,
2013-10-12 14:38:00,59.3,46.0,30.43,NNW,337,0.0,5.0,62,0.00,,,0.00,Rainwise IP-100,2013-10-12 18:38:00,
2013-10-12 14:43:00,59.0,46.0,30.42,ESE,112,1.4,4.0,62,0.00,,,0.00,Rainwise IP-100,2013-10-12 18:43:00,
2013-10-12 14:48:00,58.6,46.0,30.42,ESE,112,2.6,4.0,62,0.00,,,0.00,Rainwise IP-100,2013-10-12 18:48:00,
2013-10-12 14:53:00,57.9,46.0,30.42,ESE,112,2.1,5.0,63,0.00,,,0.00,Rainwise IP-100,2013-10-12 18:53:00,
2013-10-12 14:58:00,57.5,46.0,30.42,ESE,112,0.0,6.0,64,0.00,,,0.00,Rainwise IP-100,2013-10-12 18:58:00,
2013-10-12 15:03:00,57.3,46.0,30.41,ESE,112,3.7,6.0,65,0.00,,,0.00,Rainwise IP-100,2013-10-12 19:03:00,
2013-10-12 15:08:00,56.8,45.0,30.41,SE,135,2.3,4.0,66,0.00,,,0.00,Rainwise IP-100,2013-10-12 19:08:00,
2013-10-12 15:13:00,56.9,46.0,30.41,ENE,67,0.0,3.0,65,0.00,,,0.00,Rainwise IP-100,2013-10-12 19:13:00,
2013-10-12 15:18:00,57.6,46.0,30.42,NNE,22,1.9,3.0,64,0.00,,,0.00,Rainwise IP-100,2013-10-12 19:18:00,
2013-10-12 15:23:00,58.3,46.0,30.42,SE,135,1.2,2.0,64,0.00,,,0.00,Rainwise IP-100,2013-10-12 19:23:00,
2013-10-12 15:28:00,58.4,46.0,30.42,ESE,112,2.6,2.6,64,0.00,,,0.00,Rainwise IP-100,2013-10-12 19:28:00,
2013-10-12 15:33:00,58.1,47.0,30.41,ENE,67,3.5,4.0,65,0.00,,,0.00,Rainwise IP-100,2013-10-12 19:33:00,
2013-10-12 15:38:00,58.0,47.0,30.42,East,90,1.2,4.0,65,0.00,,,0.00,Rainwise IP-100,2013-10-12 19:38:00,
2013-10-12 15:43:00,58.0,47.0,30.42,ESE,112,1.4,1.4,65,0.00,,,0.00,Rainwise IP-100,2013-10-12 19:43:00,
2013-10-12 15:48:00,58.0,47.0,30.42,SE,135,0.0,1.0,65,0.00,,,0.00,Rainwise IP-100,2013-10-12 19:48:00,
2013-10-12 15:53:00,58.6,47.0,30.42,ENE,67,1.4,1.4,66,0.00,,,0.00,Rainwise IP-100,2013-10-12 19:53:00,
2013-10-12 15:58:00,59.4,47.0,30.42,NE,45,2.3,3.0,64,0.00,,,0.00,Rainwise IP-100,2013-10-12 19:58:00,
2013-10-12 16:03:00,59.8,46.0,30.42,NE,45,3.0,4.0,61,0.00,,,0.00,Rainwise IP-100,2013-10-12 20:03:00,
2013-10-12 16:08:00,59.4,46.0,30.42,SE,135,1.6,3.0,61,0.00,,,0.00,Rainwise IP-100,2013-10-12 20:08:00,
2013-10-12 16:13:00,58.5,47.0,30.42,North,360,0.0,3.0,63,0.00,,,0.00,Rainwise IP-100,2013-10-12 20:13:00,
2013-10-12 16:18:00,58.1,46.0,30.42,NNE,22,2.3,2.3,64,0.00,,,0.00,Rainwise IP-100,2013-10-12 20:18:00,
2013-10-12 16:23:00,58.2,46.0,30.42,NNW,337,0.0,2.0,64,0.00,,,0.00,Rainwise IP-100,2013-10-12 20:23:00,
2013-10-12 16:28:00,58.2,47.0,30.42,North,360,0.0,1.0,65,0.00,,,0.00,Rainwise IP-100,2013-10-12 20:28:00,
2013-10-12 16:33:00,58.1,47.0,30.42,North,360,0.0,0.0,66,0.00,,,0.00,Rainwise IP-100,2013-10-12 20:33:00,
2013-10-12 16:38:00,57.8,47.0,30.42,North,360,0.0,0.0,67,0.00,,,0.00,Rainwise IP-100,2013-10-12 20:38:00,
2013-10-12 16:43:00,57.3,47.0,30.42,North,360,0.0,0.0,68,0.00,,,0.00,Rainwise IP-100,2013-10-12 20:43:00,
2013-10-12 16:48:00,57.0,47.0,30.42,North,360,0.0,0.0,69,0.00,,,0.00,Rainwise IP-100,2013-10-12 20:48:00,
2013-10-12 16:53:00,56.7,47.0,30.43,North,360,0.0,0.0,70,0.00,,,0.00,Rainwise IP-100,2013-10-12 20:53:00,
2013-10-12 16:58:00,56.4,47.0,30.42,ENE,67,0.0,3.0,71,0.00,,,0.00,Rainwise IP-100,2013-10-12 20:58:00,
2013-10-12 17:03:00,56.0,47.0,30.43,NNE,22,0.0,2.0,72,0.00,,,0.00,Rainwise IP-100,2013-10-12 21:03:00,
2013-10-12 17:08:00,55.8,47.0,30.43,WNW,292,0.0,0.0,73,0.00,,,0.00,Rainwise IP-100,2013-10-12 21:08:00,
2013-10-12 17:13:00,55.6,47.0,30.43,North,360,0.0,0.0,74,0.00,,,0.00,Rainwise IP-100,2013-10-12 21:13:00,
2013-10-12 17:18:00,55.4,47.0,30.43,North,360,0.0,0.0,74,0.00,,,0.00,Rainwise IP-100,2013-10-12 21:18:00,
2013-10-12 17:23:00,55.0,47.0,30.43,SE,135,2.6,4.0,75,0.00,,,0.00,Rainwise IP-100,2013-10-12 21:23:00,
2013-10-12 17:28:00,54.1,47.0,30.43,SE,135,0.0,3.0,76,0.00,,,0.00,Rainwise IP-100,2013-10-12 21:28:00,
2013-10-12 17:33:00,53.7,47.0,30.43,SE,135,0.0,1.0,77,0.00,,,0.00,Rainwise IP-100,2013-10-12 21:33:00,
2013-10-12 17:38:00,53.6,46.0,30.44,SE,135,0.0,1.0,76,0.00,,,0.00,Rainwise IP-100,2013-10-12 21:38:00,
2013-10-12 17:43:00,53.3,45.0,30.44,ESE,112,1.6,2.0,76,0.00,,,0.00,Rainwise IP-100,2013-10-12 21:43:00,
2013-10-12 17:48:00,52.8,46.0,30.43,ESE,112,1.6,4.0,77,0.00,,,0.00,Rainwise IP-100,2013-10-12 21:48:00,
2013-10-12 17:53:00,52.6,46.0,30.43,SE,135,0.0,3.0,77,0.00,,,0.00,Rainwise IP-100,2013-10-12 21:53:00,
2013-10-12 17:58:00,52.6,46.0,30.43,SE,135,0.0,2.0,77,0.00,,,0.00,Rainwise IP-100,2013-10-12 21:58:00,
2013-10-12 18:03:00,52.3,45.0,30.43,SSE,157,0.0,2.0,77,0.00,,,0.00,Rainwise IP-100,2013-10-12 22:03:00,
2013-10-12 18:08:00,52.0,45.0,30.43,SE,135,2.3,3.0,77,0.00,,,0.00,Rainwise IP-100,2013-10-12 22:08:00,
2013-10-12 18:13:00,51.7,45.0,30.43,SSE,157,1.2,3.0,77,0.00,,,0.00,Rainwise IP-100,2013-10-12 22:13:00,
2013-10-12 18:18:00,51.4,45.0,30.43,SSE,157,1.4,3.0,78,0.00,,,0.00,Rainwise IP-100,2013-10-12 22:18:00,
2013-10-12 18:23:00,51.1,45.0,30.43,SSE,157,0.0,2.0,79,0.00,,,0.00,Rainwise IP-100,2013-10-12 22:23:00,
2013-10-12 18:28:00,50.8,45.0,30.43,ESE,112,1.9,3.0,80,0.00,,,0.00,Rainwise IP-100,2013-10-12 22:28:00,
2013-10-12 18:33:00,50.5,45.0,30.43,SSE,157,2.1,4.0,81,0.00,,,0.00,Rainwise IP-100,2013-10-12 22:33:00,
2013-10-12 18:38:00,50.3,44.0,30.43,SE,135,3.0,3.0,81,0.00,,,0.00,Rainwise IP-100,2013-10-12 22:38:00,
2013-10-12 18:43:00,50.1,44.0,30.43,SE,135,1.4,3.0,81,0.00,,,0.00,Rainwise IP-100,2013-10-12 22:43:00,
2013-10-12 18:48:00,49.9,44.0,30.43,SSE,157,1.4,2.0,80,0.00,,,0.00,Rainwise IP-100,2013-10-12 22:48:00,
2013-10-12 18:53:00,49.6,44.0,30.43,SE,135,1.2,2.0,81,0.00,,,0.00,Rainwise IP-100,2013-10-12 22:53:00,
2013-10-12 18:58:00,49.3,43.0,30.43,SSE,157,0.0,2.0,81,0.00,,,0.00,Rainwise IP-100,2013-10-12 22:58:00,
2013-10-12 19:03:00,49.1,43.0,30.43,SSE,157,0.0,2.0,81,0.00,,,0.00,Rainwise IP-100,2013-10-12 23:03:00,
2013-10-12 19:08:00,48.9,44.0,30.43,SSE,157,0.0,0.0,82,0.00,,,0.00,Rainwise IP-100,2013-10-12 23:08:00,
2013-10-12 19:13:00,48.5,44.0,30.43,SSE,157,0.0,0.0,82,0.00,,,0.00,Rainwise IP-100,2013-10-12 23:13:00,
2013-10-12 19:18:00,48.1,43.0,30.43,SSE,157,0.0,0.0,83,0.00,,,0.00,Rainwise IP-100,2013-10-12 23:18:00,
2013-10-12 19:23:00,47.8,42.0,30.44,SSE,157,0.0,0.0,83,0.00,,,0.00,Rainwise IP-100,2013-10-12 23:23:00,
2013-10-12 19:28:00,47.6,43.0,30.44,SSE,157,0.0,0.0,84,0.00,,,0.00,Rainwise IP-100,2013-10-12 23:28:00,
2013-10-12 19:33:00,47.4,43.0,30.44,SSE,157,0.0,1.0,84,0.00,,,0.00,Rainwise IP-100,2013-10-12 23:33:00,
2013-10-12 19:38:00,47.4,43.0,30.44,SSE,157,0.0,1.0,84,0.00,,,0.00,Rainwise IP-100,2013-10-12 23:38:00,
2013-10-12 19:43:00,47.3,42.0,30.44,SSE,157,0.0,1.0,85,0.00,,,0.00,Rainwise IP-100,2013-10-12 23:43:00,
2013-10-12 19:48:00,47.2,42.0,30.44,ENE,67,0.0,2.0,85,0.00,,,0.00,Rainwise IP-100,2013-10-12 23:48:00,
2013-10-12 19:53:00,46.9,43.0,30.44,ESE,112,0.0,2.0,86,0.00,,,0.00,Rainwise IP-100,2013-10-12 23:53:00,
2013-10-12 19:58:00,46.7,43.0,30.44,ESE,112,0.0,1.0,87,0.00,,,0.00,Rainwise IP-100,2013-10-12 23:58:00,
2013-10-12 20:03:00,46.5,43.0,30.44,ESE,112,0.0,0.0,87,0.00,,,0.00,Rainwise IP-100,2013-10-13 00:03:00,
2013-10-12 20:08:00,46.3,42.0,30.44,ESE,112,0.0,0.0,87,0.00,,,0.00,Rainwise IP-100,2013-10-13 00:08:00,
2013-10-12 20:13:00,46.0,42.0,30.45,ESE,112,0.0,0.0,87,0.00,,,0.00,Rainwise IP-100,2013-10-13 00:13:00,
2013-10-12 20:18:00,46.0,42.0,30.44,ESE,112,0.0,0.0,88,0.00,,,0.00,Rainwise IP-100,2013-10-13 00:18:00,
2013-10-12 20:23:00,46.1,43.0,30.45,ESE,112,0.0,0.0,89,0.00,,,0.00,Rainwise IP-100,2013-10-13 00:23:00,
2013-10-12 20:28:00,46.0,43.0,30.45,ESE,112,0.0,0.0,90,0.00,,,0.00,Rainwise IP-100,2013-10-13 00:28:00,
2013-10-12 20:33:00,45.7,43.0,30.45,ESE,112,0.0,0.0,90,0.00,,,0.00,Rainwise IP-100,2013-10-13 00:33:00,
2013-10-12 20:38:00,45.5,43.0,30.45,ESE,112,0.0,0.0,91,0.00,,,0.00,Rainwise IP-100,2013-10-13 00:38:00,
2013-10-12 20:43:00,45.5,43.0,30.45,ESE,112,0.0,0.0,91,0.00,,,0.00,Rainwise IP-100,2013-10-13 00:43:00,
2013-10-12 20:48:00,45.4,42.0,30.45,ESE,112,0.0,0.0,90,0.00,,,0.00,Rainwise IP-100,2013-10-13 00:48:00,
2013-10-12 20:53:00,45.5,43.0,30.45,ESE,112,1.6,2.0,89,0.00,,,0.00,Rainwise IP-100,2013-10-13 00:53:00,
2013-10-12 20:58:00,45.9,42.0,30.45,SSE,157,1.9,2.0,88,0.00,,,0.00,Rainwise IP-100,2013-10-13 00:58:00,
2013-10-12 21:03:00,46.1,42.0,30.45,SSE,157,2.1,2.1,88,0.00,,,0.00,Rainwise IP-100,2013-10-13 01:03:00,
2013-10-12 21:08:00,46.1,42.0,30.45,SSE,157,1.4,2.0,88,0.00,,,0.00,Rainwise IP-100,2013-10-13 01:08:00,
2013-10-12 21:13:00,46.1,42.0,30.45,SSE,157,1.4,3.0,88,0.00,,,0.00,Rainwise IP-100,2013-10-13 01:13:00,
2013-10-12 21:18:00,46.1,42.0,30.45,ESE,112,1.9,2.0,88,0.00,,,0.00,Rainwise IP-100,2013-10-13 01:18:00,
2013-10-12 21:23:00,46.2,43.0,30.45,ESE,112,1.4,2.0,89,0.00,,,0.00,Rainwise IP-100,2013-10-13 01:23:00,
2013-10-12 21:28:00,46.2,43.0,30.45,ESE,112,2.1,2.1,89,0.00,,,0.00,Rainwise IP-100,2013-10-13 01:28:00,
2013-10-12 21:33:00,46.2,43.0,30.45,ESE,112,0.0,3.0,89,0.00,,,0.00,Rainwise IP-100,2013-10-13 01:33:00,
2013-10-12 21:38:00,46.2,43.0,30.45,SE,135,0.0,2.0,90,0.00,,,0.00,Rainwise IP-100,2013-10-13 01:38:00,
2013-10-12 21:43:00,46.1,43.0,30.45,SSE,157,1.2,1.2,90,0.00,,,0.00,Rainwise IP-100,2013-10-13 01:43:00,
2013-10-12 21:48:00,46.0,43.0,30.45,SSE,157,1.2,1.2,91,0.00,,,0.00,Rainwise IP-100,2013-10-13 01:48:00,
2013-10-12 21:53:00,46.0,43.0,30.46,SSE,157,0.0,1.0,91,0.00,,,0.00,Rainwise IP-100,2013-10-13 01:53:00,
2013-10-12 21:57:00,45.8,44.0,30.46,SSE,157,0.0,0.0,92,0.00,,,0.00,Rainwise IP-100,2013-10-13 01:57:00,
2013-10-12 22:02:00,45.5,44.0,30.45,SSE,157,0.0,0.0,92,0.00,,,0.00,Rainwise IP-100,2013-10-13 02:02:00,
2013-10-12 22:07:00,45.3,43.0,30.45,SSE,157,0.0,0.0,93,0.00,,,0.00,Rainwise IP-100,2013-10-13 02:07:00,
2013-10-12 22:12:00,45.1,43.0,30.45,SSE,157,0.0,0.0,93,0.00,,,0.00,Rainwise IP-100,2013-10-13 02:12:00,
2013-10-12 22:17:00,44.8,43.0,30.46,SSE,157,0.0,0.0,94,0.00,,,0.00,Rainwise IP-100,2013-10-13 02:17:00,
2013-10-12 22:22:00,44.8,44.0,30.46,SSE,157,0.0,0.0,95,0.00,,,0.00,Rainwise IP-100,2013-10-13 02:22:00,
2013-10-12 22:27:00,45.2,44.0,30.46,SSE,157,0.0,0.0,95,0.00,,,0.00,Rainwise IP-100,2013-10-13 02:27:00,
2013-10-12 22:32:00,45.3,44.0,30.46,SSE,157,0.0,1.0,95,0.00,,,0.00,Rainwise IP-100,2013-10-13 02:32:00,
2013-10-12 22:37:00,45.5,44.0,30.46,SSE,157,0.0,1.0,94,0.00,,,0.00,Rainwise IP-100,2013-10-13 02:37:00,
2013-10-12 22:42:00,45.7,44.0,30.46,ESE,112,0.0,3.0,94,0.00,,,0.00,Rainwise IP-100,2013-10-13 02:42:00,
2013-10-12 22:47:00,45.8,44.0,30.46,ESE,112,1.2,2.0,94,0.00,,,0.00,Rainwise IP-100,2013-10-13 02:47:00,
2013-10-12 22:52:00,45.9,44.0,30.46,ESE,112,1.6,2.0,94,0.00,,,0.00,Rainwise IP-100,2013-10-13 02:52:00,
2013-10-12 22:57:00,45.8,44.0,30.46,ESE,112,1.9,2.0,94,0.00,,,0.00,Rainwise IP-100,2013-10-13 02:57:00,
2013-10-12 23:02:00,45.7,44.0,30.46,ESE,112,1.9,2.0,94,0.00,,,0.00,Rainwise IP-100,2013-10-13 03:02:00,
2013-10-12 23:07:00,45.7,44.0,30.46,ESE,112,1.6,2.0,95,0.00,,,0.00,Rainwise IP-100,2013-10-13 03:07:00,
2013-10-12 23:12:00,45.8,44.0,30.46,ESE,112,1.2,2.0,95,0.00,,,0.00,Rainwise IP-100,2013-10-13 03:12:00,
2013-10-12 23:17:00,45.8,44.0,30.46,ESE,112,1.2,2.0,95,0.00,,,0.00,Rainwise IP-100,2013-10-13 03:17:00,
2013-10-12 23:22:00,45.8,44.0,30.46,ESE,112,2.8,2.8,95,0.00,,,0.00,Rainwise IP-100,2013-10-13 03:22:00,
2013-10-12 23:27:00,45.8,44.0,30.46,ESE,112,1.6,2.0,95,0.00,,,0.00,Rainwise IP-100,2013-10-13 03:27:00,
2013-10-12 23:32:00,45.7,44.0,30.46,ESE,112,0.0,2.0,95,0.00,,,0.00,Rainwise IP-100,2013-10-13 03:32:00,
2013-10-12 23:37:00,45.6,45.0,30.46,ESE,112,1.6,1.6,96,0.00,,,0.00,Rainwise IP-100,2013-10-13 03:37:00,
2013-10-12 23:42:00,45.6,45.0,30.46,ESE,112,1.9,2.0,96,0.00,,,0.00,Rainwise IP-100,2013-10-13 03:42:00,
2013-10-12 23:47:00,45.6,45.0,30.46,ESE,112,1.6,2.0,96,0.00,,,0.00,Rainwise IP-100,2013-10-13 03:47:00,
2013-10-12 23:52:00,45.6,45.0,30.47,ESE,112,1.4,3.0,96,0.00,,,0.00,Rainwise IP-100,2013-10-13 03:52:00,
2013-10-12 23:57:00,45.6,45.0,30.46,East,90,1.6,2.0,96,0.00,,,0.00,Rainwise IP-100,2013-10-13 03:57:00,